Cherokee, IA

10:42 PM CST on December 10, 2017 (GMT -0600)
Cherokee Municipal

Weather History for KCKP - July, 2013

Change the Weather History Date:

Wednesday, July 31, 2013

  Actual Average Record
Temperature  
Mean Temperature 72 °F -  
Max Temperature 85 °F 84 °F 101 °F (1955)
Min Temperature 59 °F 59 °F 44 °F (1971)
Cooling Degree Days 6    
Growing Degree Days 22 (Base 50)    
Moisture  
Dew Point 62 °F    
Average Humidity 76    
Maximum Humidity 99    
Minimum Humidity 38    
Precipitation  
Precipitation 0.00 in - - ()
Sea Level Pressure  
Sea Level Pressure 30.11 in    
Wind  
Wind Speed 2 mph (NNW)    
Max Wind Speed 10 mph    
Max Gust Speed -    
Visibility 7 miles    
Events Fog    
Averages and records for this station are not official NWS values.
T = Trace of Precipitation, MM = Missing Value Source: NWS Daily Summary

Daily Weather History Graph

Daily Weather History Graph

Search for Another Location

Airport or City:

Trip Planner

Search our weather history database for the weather conditions in past years. The results will help you decide how hot, cold, wet, or windy it might be!

Date:

Astronomy

Jul. 31, 2013 Rise Set
Actual Time 6:13 AM CDT 8:43 PM CDT
Civil Twilight 5:40 AM CDT 9:15 PM CDT
Nautical Twilight 5:00 AM CDT 9:55 PM CDT
Astronomical Twilight 4:15 AM CDT 10:40 PM CDT
Moon 1:09 AM CDT (7/31) 4:01 PM CDT (7/31)
Length of Visible Light 15h 34m
Length of Day
14h 30m
Waning Crescent, 31% of the Moon is Illuminated
Jul 31
Waning Crescent
Aug 6
New
Aug 14
First Quarter
Aug 20
Full
Aug 28
Last Quarter

Hourly Weather History & Observations

Time (CDT) Temp. Heat Index Dew Point Humidity Pressure Visibility Wind Dir Wind Speed Gust Speed Precip Events Conditions
12:15 AM 64.6 °F - 63.7 °F 97% 30.09 in 5.0 mi Calm Calm - N/A   Clear
12:35 AM 63.3 °F - 62.6 °F 97% 30.08 in 5.0 mi Calm Calm - N/A   Clear
12:55 AM 63.7 °F - 63.0 °F 97% 30.08 in 0.8 mi Calm Calm - N/A   Overcast
1:15 AM 63.3 °F - 62.8 °F 98% 30.08 in 3.0 mi Calm Calm - N/A   Mostly Cloudy
1:35 AM 63.0 °F - 62.4 °F 98% 30.09 in 1.5 mi Calm Calm - N/A   Scattered Clouds
1:55 AM 62.6 °F - 62.1 °F 98% 30.10 in 5.0 mi Calm Calm - N/A   Mostly Cloudy
2:15 AM 62.4 °F - 61.9 °F 98% 30.11 in 0.2 mi Calm Calm - N/A Fog Fog
2:35 AM 62.6 °F - 61.9 °F 97% 30.10 in 0.2 mi Calm Calm - N/A Fog Fog
2:55 AM 62.1 °F - 61.5 °F 98% 30.11 in 0.2 mi Calm Calm - N/A Fog Fog
3:15 AM 62.2 °F - 61.9 °F 99% 30.11 in 0.5 mi North 3.5 mph - N/A Fog Fog
3:35 AM 61.7 °F - 61.2 °F 98% 30.11 in 3.0 mi Calm Calm - N/A   Clear
3:55 AM 60.3 °F - 59.9 °F 99% 30.11 in 2.5 mi Calm Calm - N/A   Clear
4:15 AM 60.3 °F - 59.9 °F 99% 30.12 in 2.5 mi Calm Calm - N/A   Mostly Cloudy
4:35 AM 60.8 °F - 60.3 °F 98% 30.11 in 3.0 mi Calm Calm - N/A   Mostly Cloudy
4:55 AM 60.8 °F - 60.3 °F 98% 30.11 in 0.2 mi Calm Calm - N/A Fog Fog
5:15 AM 61.0 °F - 60.8 °F 99% 30.11 in 0.5 mi Calm Calm - N/A Fog Fog
5:35 AM 60.3 °F - 59.9 °F 99% 30.12 in 0.2 mi Calm Calm - N/A Fog Fog
5:55 AM 60.3 °F - 59.9 °F 99% 30.12 in 0.2 mi Calm Calm - N/A Fog Fog
6:15 AM 60.1 °F - 59.9 °F 99% 30.12 in 0.2 mi Calm Calm - N/A Fog Fog
6:35 AM 59.9 °F - 59.4 °F 98% 30.13 in 0.5 mi Calm Calm - N/A Fog Fog
6:55 AM 60.4 °F - 60.1 °F 99% 30.14 in 0.5 mi Calm Calm - N/A Fog Fog
7:15 AM 60.8 °F - 60.3 °F 98% 30.14 in 0.8 mi Calm Calm - N/A   Overcast
7:35 AM 61.3 °F - 61.0 °F 99% 30.14 in 1.5 mi Calm Calm - N/A   Overcast
7:55 AM 62.4 °F - 62.1 °F 99% 30.13 in 2.0 mi Calm Calm - N/A   Overcast
8:15 AM 63.1 °F - 62.8 °F 99% 30.13 in 2.5 mi Calm Calm - N/A   Overcast
8:35 AM 64.0 °F - 63.7 °F 99% 30.14 in 1.2 mi Calm Calm - N/A   Overcast
8:55 AM 65.8 °F - 65.5 °F 99% 30.14 in 5.0 mi Calm Calm - N/A   Mostly Cloudy
9:15 AM 68.2 °F - 68.0 °F 99% 30.14 in 10.0 mi Calm Calm - N/A   Scattered Clouds
9:35 AM 69.8 °F - 69.3 °F 98% 30.14 in 10.0 mi Calm Calm - N/A   Mostly Cloudy
9:55 AM 71.6 °F - 70.0 °F 95% 30.14 in 10.0 mi Calm Calm - N/A   Overcast
10:15 AM 75.0 °F - 67.3 °F 77% 30.15 in 10.0 mi Calm Calm - N/A   Mostly Cloudy
10:35 AM 76.3 °F - 66.4 °F 71% 30.14 in 10.0 mi North 4.6 mph - N/A   Scattered Clouds
10:55 AM 77.9 °F - 66.9 °F 69% 30.14 in 10.0 mi North 4.6 mph - N/A   Clear
11:15 AM 78.8 °F - 66.9 °F 67% 30.14 in 10.0 mi WNW 5.8 mph - N/A   Clear
11:35 AM 81.1 °F 83.2 °F 66.2 °F 60% 30.13 in 10.0 mi NW 4.6 mph - N/A   Clear
11:55 AM 80.1 °F 81.8 °F 64.6 °F 59% 30.13 in 10.0 mi WNW 3.5 mph - N/A   Mostly Cloudy
12:15 PM 79.7 °F - 64.8 °F 60% 30.13 in 10.0 mi NNW 4.6 mph - N/A   Mostly Cloudy
12:35 PM 79.7 °F - 66.6 °F 64% 30.12 in 10.0 mi North 5.8 mph - N/A   Overcast
12:55 PM 81.7 °F 83.3 °F 64.6 °F 56% 30.12 in 10.0 mi North 6.9 mph - N/A   Mostly Cloudy
1:15 PM 80.2 °F 81.8 °F 63.9 °F 57% 30.12 in 10.0 mi North 6.9 mph - N/A   Overcast
1:35 PM 82.9 °F 83.8 °F 62.6 °F 50% 30.12 in 10.0 mi North 10.4 mph - N/A   Mostly Cloudy
1:55 PM 83.5 °F 84.9 °F 64.0 °F 52% 30.11 in 10.0 mi North 9.2 mph - N/A   Scattered Clouds
2:15 PM 81.7 °F 83.0 °F 63.7 °F 54% 30.11 in 10.0 mi North 4.6 mph - N/A   Mostly Cloudy
2:35 PM 84.6 °F 85.4 °F 62.6 °F 48% 30.11 in 10.0 mi NW 4.6 mph - N/A   Overcast
2:55 PM 84.4 °F 84.8 °F 61.7 °F 46% 30.11 in 10.0 mi NW 4.6 mph - N/A   Mostly Cloudy
3:15 PM 84.7 °F 85.2 °F 62.1 °F 46% 30.11 in 10.0 mi NW 8.1 mph - N/A   Mostly Cloudy
3:35 PM 84.7 °F 85.0 °F 61.0 °F 45% 30.10 in 10.0 mi NW 5.8 mph - N/A   Mostly Cloudy
3:55 PM 84.4 °F 84.6 °F 61.2 °F 45% 30.10 in 10.0 mi North 9.2 mph - N/A   Mostly Cloudy
4:15 PM 84.6 °F 84.6 °F 60.6 °F 44% 30.10 in 10.0 mi NW 6.9 mph - N/A   Scattered Clouds
4:35 PM 84.7 °F 84.6 °F 60.1 °F 43% 30.09 in 10.0 mi North 6.9 mph - N/A   Scattered Clouds
4:55 PM 84.6 °F 84.4 °F 59.7 °F 43% 30.09 in 10.0 mi NNW 5.8 mph - N/A   Clear
5:15 PM 84.7 °F 83.7 °F 56.5 °F 38% 30.08 in 10.0 mi NW 5.8 mph - N/A   Clear
5:35 PM 84.9 °F 84.1 °F 57.2 °F 39% 30.08 in 10.0 mi NNW 10.4 mph - N/A   Clear
5:55 PM 84.2 °F 83.2 °F 56.1 °F 38% 30.08 in 10.0 mi NW 8.1 mph - N/A   Clear
6:15 PM 83.3 °F 82.6 °F 56.5 °F 40% 30.08 in 10.0 mi NW 8.1 mph - N/A   Clear
6:35 PM 82.9 °F 82.4 °F 57.0 °F 41% 30.07 in 10.0 mi NNW 8.1 mph - N/A   Clear
6:55 PM 82.4 °F 81.9 °F 56.7 °F 41% 30.07 in 10.0 mi NNW 4.6 mph - N/A   Clear
7:15 PM 81.5 °F 81.3 °F 56.3 °F 42% 30.06 in 10.0 mi NW 4.6 mph - N/A   Clear
7:35 PM 80.6 °F 80.8 °F 57.6 °F 45% 30.06 in 10.0 mi NW 3.5 mph - N/A   Clear
7:55 PM 79.5 °F - 58.8 °F 49% 30.06 in 10.0 mi Calm Calm - N/A   Clear
8:15 PM 77.9 °F - 60.1 °F 54% 30.06 in 10.0 mi Calm Calm - N/A   Clear
8:35 PM 75.4 °F - 60.1 °F 59% 30.06 in 10.0 mi Calm Calm - N/A   Clear
8:55 PM 73.4 °F - 61.0 °F 65% 30.07 in 10.0 mi Calm Calm - N/A   Clear
9:15 PM 70.5 °F - 62.8 °F 76% 30.08 in 10.0 mi Calm Calm - N/A   Clear
9:35 PM 69.6 °F - 63.3 °F 80% 30.09 in 10.0 mi Calm Calm - N/A   Clear
9:55 PM 68.5 °F - 62.8 °F 82% 30.09 in 10.0 mi Calm Calm - N/A   Clear
10:15 PM 67.1 °F - 62.1 °F 84% 30.10 in 10.0 mi Calm Calm - N/A   Clear
10:35 PM 65.1 °F - 62.2 °F 90% 30.10 in 10.0 mi Calm Calm - N/A   Clear
10:55 PM 64.8 °F - 62.2 °F 92% 30.10 in 10.0 mi Calm Calm - N/A   Clear
11:15 PM 63.7 °F - 61.2 °F 91% 30.10 in 10.0 mi Calm Calm - N/A   Clear
11:35 PM 63.0 °F - 61.2 °F 94% 30.11 in 10.0 mi Calm Calm - N/A   Clear
11:55 PM 64.0 °F - 62.2 °F 94% 30.11 in 10.0 mi Calm Calm - N/A   Clear